SL-8 R/B, 23190

Orbit data source: Space-Track

SL-8 R/B, 23190 is space debris in LEO originally from a launch on Tue, 02 Aug 1994 UTC launched from the Plesetsk Missile And Space Complex (PKMTR). Debris objects in space refer to the collection of defunct objects orbiting the Earth. Examples of debris include non-operational satellites, rocket bodies, and fragments generated from explosions, collisions, or faulty payload assembly.

Loading next visibility...
SL-8 R/B details
Identifier
23190, 1994-045B
Orbit
LEO
Last TLE update17 hours ago
Origin
Flag of CISVKS (CIS)
ManufacturerPolyot
MissionSpacecraft
Bus & MotorS3, Unknown motor
Mass1,434 kg wet, 1,434 kg dry
Launch date (UTC)
1994-08-02 (30 years ago)
Launch vehicleUnknown
Launch site
Plesetsk Missile And Space Complex (PKMTR)
Object type
Payload
Rocket body
Debris
Shape & HBRCyl, 6.57 m
Radar Cross Section14.646 m², Large (>1 m²)

Expand to show TLE details & history

TLE from 17 hours ago
0 SL-8 R/B
1 23190U 94045B   24355.78440639  .00000040  00000-0  65772-4 0  9992
2 23190  74.0282 235.6677 0019714 320.7032  39.2655 13.74303180523836
Epoch: 2024-12-20T18:49Z
Definitive object data (Epoch: 2024-12-20T18:49:32.712Z)
Latitude-0.00006°
Longitude-136.56356°
Altitude975.47 km
Speed7.37 km/s
True Right ascension15h 42m 40s
True Declination0° 00' 00"
Sunlit
Object was in daylight at TLE epoch
Visualization TLE readout
Latitude-73.65972°
Longitude118.46884°
Altitude1,002.105 km
Speed7.355 km/s
Apparent Right ascension00h 10m 18s
Apparent Declination-73° 20' 15"
Sunlit
Object is in daylight
Visualization observer readout
Local Sidereal Time10:52:10
Azimuth189.691° SSW
Elevation-55.284°
Doppler factor1
Orbital elements
Apogee altitude996.365 km
Perigee altitude967.346 km
Semi-major axis7,359.993 km
Eccentricity0.0019714
Inclination74.0282°
RAAN235.6677°
Arg. of periapsis320.7032°
True anomaly39.40875°
Mean anomaly39.2655°
Eccentric anomaly39.3371°
Mean motion3.43738 °/min
BSTAR0.000065772
Orbital period104.73 mins
Loading maneuver chart data...
Loading historical data...
Loading historical data...
Loading historical data...
Loading historical data...
Loading historical data...
Loading historical data...
Loading historical data...
Other satellites on launch #45 in the year 1994 (1994-08-02 UTC)

SL-8 R/B Visibility forecast

Observer location: undefined°, undefined

Span
Click to sort rows by Start time (UTC) header in descending order
Start Az.
Max El. time (UTC)
Max El. Az.
Max El.
End time (UTC)
End Az.
6 mins2024-12-21 15:55:28.483Z125.749° SE2024-12-21 15:58:28.483Z94.664° ESE16.414°2024-12-21 16:01:28.483Z63.051° ENE
11 mins2024-12-21 17:39:28.483Z208.612° SW2024-12-21 17:44:28.483Z280.012° WNW43.131°2024-12-21 17:50:28.483Z13.867° NNE
10 mins2024-12-22 02:51:28.483Z359.618° N2024-12-22 02:55:28.483Z57.707° ENE36.282°2024-12-22 03:01:28.483Z137.701° SSE
8 mins2024-12-22 04:38:28.483Z307.852° NW2024-12-22 04:42:28.483Z258.576° W24.227°2024-12-22 04:46:28.483Z213.8° SW
|